SRR6374 EDDK-LFLL

Flight info

Callsign SRR6374
Flight time 1h 2m
Altitude 32000
Route NVO3P NVO Y868 NAVAK Z283 LNO/N0451F330 Z283 SOPOK DCT ROUSY DCT GTQ DCT POGOL DCT LASAT DCT MOROK Z24 BOLGI T14 MILPA
Aircraft B763/H-SDE3FGHIM3RWXY/LB1

Departure

Time 2026-05-07 20:24
Airport Cologne Bonn Airport (EDDK)

Arrival

Time 2026-05-07 21:27
Airport Lyon Saint-Exupéry Airport (LFLL)
Time Latitude Longitude Altitude Speed Heading
2026-05-07 19:40 50.86667 7.13248 249 ft 0 kts 47°
2026-05-07 20:12 50.86664 7.13243 249 ft 2 kts 47°
2026-05-07 20:13 50.86654 7.13226 248 ft 2 kts 46°
2026-05-07 20:13 50.86644 7.13209 248 ft 2 kts 46°
2026-05-07 20:13 50.86634 7.13192 248 ft 2 kts 46°
2026-05-07 20:13 50.86624 7.13175 248 ft 2 kts 46°
2026-05-07 20:14 50.86614 7.13158 248 ft 2 kts 47°
2026-05-07 20:14 50.86608 7.13138 248 ft 2 kts 95°
2026-05-07 20:14 50.86613 7.13119 248 ft 0 kts 135°
2026-05-07 20:14 50.86616 7.13115 248 ft 0 kts 138°
2026-05-07 20:17 50.86613 7.13120 248 ft 2 kts 137°
2026-05-07 20:17 50.86592 7.13150 248 ft 5 kts 137°
2026-05-07 20:18 50.86563 7.13192 250 ft 6 kts 137°
2026-05-07 20:18 50.86530 7.13239 251 ft 6 kts 137°
2026-05-07 20:18 50.86500 7.13294 253 ft 6 kts 117°
2026-05-07 20:18 50.86500 7.13364 254 ft 5 kts 70°
2026-05-07 20:19 50.86525 7.13444 255 ft 10 kts 64°
2026-05-07 20:19 50.86564 7.13575 257 ft 15 kts 64°
2026-05-07 20:19 50.86619 7.13753 259 ft 20 kts 64°
2026-05-07 20:19 50.86686 7.13975 260 ft 23 kts 64°
2026-05-07 20:20 50.86764 7.14130 259 ft 14 kts 358°
2026-05-07 20:20 50.86849 7.14031 257 ft 17 kts 317°
2026-05-07 20:20 50.86949 7.13886 255 ft 21 kts 317°
2026-05-07 20:20 50.87070 7.13712 251 ft 25 kts 317°
2026-05-07 20:21 50.87206 7.13515 247 ft 29 kts 317°
2026-05-07 20:21 50.87356 7.13296 247 ft 29 kts 317°
2026-05-07 20:21 50.87508 7.13080 247 ft 29 kts 318°
2026-05-07 20:21 50.87650 7.12868 250 ft 27 kts 317°
2026-05-07 20:22 50.87754 7.12729 250 ft 10 kts 344°
2026-05-07 20:22 50.87790 7.12772 250 ft 6 kts 70°
2026-05-07 20:22 50.87805 7.12861 250 ft 10 kts 76°
2026-05-07 20:22 50.87827 7.13001 247 ft 16 kts 76°
2026-05-07 20:23 50.87844 7.13187 246 ft 15 kts 113°
2026-05-07 20:23 50.87775 7.13303 245 ft 18 kts 139°
2026-05-07 20:23 50.87622 7.13519 247 ft 45 kts 136°
2026-05-07 20:23 50.87259 7.14050 253 ft 96 kts 137°
2026-05-07 20:24 50.86661 7.14918 275 ft 138 kts 137°
2026-05-07 20:24 50.85867 7.16071 444 ft 164 kts 135°
2026-05-07 20:24 50.85013 7.17324 933 ft 171 kts 136°
2026-05-07 20:24 50.84125 7.18586 1535 ft 174 kts 136°
2026-05-07 20:25 50.83205 7.19856 1921 ft 184 kts 137°
2026-05-07 20:25 50.82202 7.21234 2258 ft 200 kts 137°
2026-05-07 20:25 50.81092 7.22766 2560 ft 221 kts 137°
2026-05-07 20:25 50.79752 7.24034 3084 ft 234 kts 166°
2026-05-07 20:26 50.78165 7.24076 3758 ft 237 kts 194°
2026-05-07 20:26 50.76731 7.22796 4439 ft 240 kts 229°
2026-05-07 20:26 50.75835 7.20595 5137 ft 241 kts 243°
2026-05-07 20:26 50.75263 7.18190 5867 ft 240 kts 266°
2026-05-07 20:27 50.75401 7.15609 6561 ft 240 kts 281°
2026-05-07 20:27 50.75712 7.12977 7013 ft 254 kts 281°
2026-05-07 20:27 50.76058 7.10147 7443 ft 270 kts 282°
2026-05-07 20:27 50.76442 7.07182 8062 ft 279 kts 282°
2026-05-07 20:28 50.76836 7.04198 8836 ft 281 kts 282°
2026-05-07 20:28 50.77234 7.01218 9572 ft 284 kts 282°
2026-05-07 20:28 50.77651 6.98121 10329 ft 288 kts 282°
2026-05-07 20:28 50.77994 6.94968 10737 ft 303 kts 272°
2026-05-07 20:29 50.77726 6.91568 11127 ft 320 kts 252°
2026-05-07 20:29 50.76812 6.88526 11504 ft 337 kts 236°
2026-05-07 20:29 50.75170 6.85753 12047 ft 350 kts 217°
2026-05-07 20:29 50.73083 6.83783 12878 ft 353 kts 203°
2026-05-07 20:30 50.70764 6.82660 13604 ft 357 kts 195°
2026-05-07 20:30 50.68370 6.81493 14329 ft 360 kts 200°
2026-05-07 20:30 50.65994 6.80216 15030 ft 364 kts 200°
2026-05-07 20:30 50.63619 6.78871 15734 ft 368 kts 201°
2026-05-07 20:31 50.61183 6.77465 16411 ft 371 kts 201°
2026-05-07 20:31 50.58758 6.76044 17073 ft 375 kts 202°
2026-05-07 20:31 50.56314 6.74603 17720 ft 380 kts 202°
2026-05-07 20:31 50.53823 6.73130 18495 ft 383 kts 202°
2026-05-07 20:32 50.51323 6.71649 19196 ft 386 kts 202°
2026-05-07 20:32 50.48784 6.70145 19931 ft 389 kts 202°
2026-05-07 20:32 50.46263 6.68652 20598 ft 393 kts 202°
2026-05-07 20:32 50.43673 6.67119 21276 ft 396 kts 202°
2026-05-07 20:33 50.41118 6.65610 21936 ft 399 kts 202°
2026-05-07 20:33 50.38513 6.64071 22544 ft 403 kts 202°
2026-05-07 20:33 50.35833 6.62490 22670 ft 414 kts 202°
2026-05-07 20:33 50.33203 6.60942 23632 ft 407 kts 202°
2026-05-07 20:34 50.30547 6.59379 24246 ft 411 kts 202°
2026-05-07 20:34 50.27848 6.57793 24812 ft 416 kts 202°
2026-05-07 20:34 50.25122 6.56192 25502 ft 419 kts 202°
2026-05-07 20:34 50.22423 6.54610 26144 ft 423 kts 202°
2026-05-07 20:35 50.19879 6.53120 26698 ft 427 kts 202°
2026-05-07 20:35 50.17095 6.51492 27328 ft 431 kts 202°
2026-05-07 20:35 50.14243 6.49826 27911 ft 435 kts 202°
2026-05-07 20:35 50.11431 6.48185 28496 ft 438 kts 202°
2026-05-07 20:36 50.08540 6.46500 29049 ft 442 kts 202°
2026-05-07 20:36 50.05631 6.44808 29621 ft 445 kts 202°
2026-05-07 20:36 50.02737 6.43126 30157 ft 449 kts 202°
2026-05-07 20:36 49.99777 6.41408 30660 ft 453 kts 202°
2026-05-07 20:37 49.96818 6.39693 31218 ft 454 kts 203°
2026-05-07 20:37 49.93816 6.37955 31885 ft 453 kts 203°
2026-05-07 20:37 49.90856 6.36244 32050 ft 453 kts 203°
2026-05-07 20:38 49.85099 6.32923 32053 ft 448 kts 202°
2026-05-07 20:38 49.79264 6.29564 32057 ft 448 kts 202°
2026-05-07 20:39 49.73652 6.26342 32058 ft 449 kts 202°
2026-05-07 20:39 49.67945 6.23073 32057 ft 448 kts 202°
2026-05-07 20:40 49.62287 6.19841 32057 ft 449 kts 202°
2026-05-07 20:40 49.56394 6.16586 32051 ft 450 kts 197°
2026-05-07 20:41 49.50147 6.15591 32064 ft 455 kts 178°
2026-05-07 20:41 49.44371 6.17592 32062 ft 461 kts 160°
2026-05-07 20:42 49.38897 6.22584 32058 ft 465 kts 143°
2026-05-07 20:42 49.33817 6.28702 32046 ft 466 kts 143°
2026-05-07 20:43 49.28748 6.34885 32041 ft 465 kts 143°
2026-05-07 20:43 49.23695 6.41072 32041 ft 465 kts 143°
2026-05-07 20:44 49.18644 6.47256 32038 ft 466 kts 142°
2026-05-07 20:44 49.13609 6.53409 32041 ft 465 kts 142°
2026-05-07 20:45 49.08521 6.59611 32038 ft 465 kts 142°
2026-05-07 20:45 49.03416 6.65711 32036 ft 464 kts 148°
2026-05-07 20:46 48.97623 6.69810 32043 ft 459 kts 167°
2026-05-07 20:46 48.91325 6.70906 32042 ft 454 kts 182°
2026-05-07 20:47 48.85011 6.70923 32036 ft 454 kts 183°
2026-05-07 20:47 48.78682 6.70779 32035 ft 453 kts 184°
2026-05-07 20:48 48.72435 6.70574 32034 ft 452 kts 184°
2026-05-07 20:48 48.66086 6.70342 32040 ft 453 kts 184°
2026-05-07 20:49 48.59895 6.70106 32040 ft 454 kts 184°
2026-05-07 20:49 48.53658 6.69867 32040 ft 453 kts 184°
2026-05-07 20:50 48.47308 6.69622 32041 ft 454 kts 184°
2026-05-07 20:50 48.41246 6.69389 32045 ft 453 kts 184°
2026-05-07 20:51 48.34923 6.69146 32046 ft 452 kts 184°
2026-05-07 20:51 48.28645 6.68904 32055 ft 452 kts 185°
2026-05-07 20:52 48.22342 6.68662 32056 ft 452 kts 185°
2026-05-07 20:52 48.16063 6.68422 32056 ft 452 kts 185°
2026-05-07 20:53 48.09735 6.68180 32061 ft 452 kts 185°
2026-05-07 20:53 48.03466 6.67943 32057 ft 452 kts 185°
2026-05-07 20:54 47.97145 6.67703 32058 ft 454 kts 185°
2026-05-07 20:54 47.93962 6.67581 31709 ft 460 kts 185°
2026-05-07 20:54 47.90764 6.67460 31332 ft 458 kts 185°
2026-05-07 20:54 47.87633 6.67344 30972 ft 450 kts 185°
2026-05-07 20:55 47.84546 6.67229 30607 ft 442 kts 185°
2026-05-07 20:55 47.81472 6.67114 30218 ft 435 kts 185°
2026-05-07 20:55 47.78486 6.67002 29847 ft 430 kts 185°
2026-05-07 20:55 47.75499 6.66888 29471 ft 429 kts 185°
2026-05-07 20:56 47.72505 6.66775 29100 ft 429 kts 185°
2026-05-07 20:56 47.69499 6.66662 28728 ft 429 kts 185°
2026-05-07 20:56 47.66523 6.66551 28358 ft 427 kts 185°
2026-05-07 20:56 47.63652 6.66444 27999 ft 425 kts 185°
2026-05-07 20:57 47.60738 6.66335 27631 ft 422 kts 185°
2026-05-07 20:57 47.57972 6.66232 27280 ft 419 kts 185°
2026-05-07 20:57 47.55243 6.66130 26933 ft 417 kts 185°
2026-05-07 20:57 47.52419 6.66025 26571 ft 414 kts 185°
2026-05-07 20:58 47.49583 6.65920 26207 ft 412 kts 185°
2026-05-07 20:58 47.46693 6.65812 25833 ft 410 kts 185°
2026-05-07 20:58 47.43838 6.65706 25465 ft 408 kts 184°
2026-05-07 20:58 47.41032 6.65602 25097 ft 407 kts 184°
2026-05-07 20:59 47.38209 6.65497 24727 ft 405 kts 184°
2026-05-07 20:59 47.35416 6.65394 24359 ft 403 kts 184°
2026-05-07 20:59 47.32585 6.65290 23985 ft 401 kts 184°
2026-05-07 20:59 47.29833 6.65189 23568 ft 397 kts 184°
2026-05-07 21:00 47.27041 6.65081 22622 ft 404 kts 185°
2026-05-07 21:00 47.24268 6.64594 21983 ft 399 kts 195°
2026-05-07 21:00 47.21603 6.63345 21220 ft 398 kts 206°
2026-05-07 21:00 47.19231 6.61373 21047 ft 386 kts 218°
2026-05-07 21:01 47.17144 6.58935 21058 ft 387 kts 221°
2026-05-07 21:01 47.15028 6.56336 21057 ft 397 kts 223°
2026-05-07 21:01 47.12966 6.53721 21051 ft 401 kts 223°
2026-05-07 21:01 47.10815 6.50958 21057 ft 412 kts 223°
2026-05-07 21:02 47.08622 6.48115 21057 ft 424 kts 223°
2026-05-07 21:02 47.06420 6.45249 21047 ft 425 kts 223°
2026-05-07 21:02 47.04205 6.42365 21038 ft 420 kts 224°
2026-05-07 21:02 47.02039 6.39541 21041 ft 417 kts 223°
2026-05-07 21:03 46.99874 6.36717 21048 ft 417 kts 223°
2026-05-07 21:03 46.97702 6.33885 21043 ft 419 kts 223°
2026-05-07 21:03 46.95516 6.31038 21047 ft 420 kts 223°
2026-05-07 21:03 46.93336 6.28199 21041 ft 420 kts 223°
2026-05-07 21:04 46.91169 6.25379 21040 ft 419 kts 223°
2026-05-07 21:04 46.88984 6.22539 21039 ft 419 kts 223°
2026-05-07 21:04 46.86800 6.19712 21042 ft 419 kts 221°
2026-05-07 21:04 46.84503 6.17065 21045 ft 420 kts 218°
2026-05-07 21:05 46.82223 6.14454 21045 ft 420 kts 219°
2026-05-07 21:05 46.79908 6.11801 21039 ft 420 kts 219°
2026-05-07 21:05 46.77620 6.09162 21040 ft 420 kts 219°
2026-05-07 21:05 46.75309 6.06496 21037 ft 420 kts 219°
2026-05-07 21:06 46.73041 6.03880 21034 ft 420 kts 219°
2026-05-07 21:06 46.70757 6.01246 21029 ft 420 kts 219°
2026-05-07 21:06 46.68448 5.98585 21035 ft 420 kts 219°
2026-05-07 21:06 46.66148 5.95936 21021 ft 421 kts 219°
2026-05-07 21:07 46.63839 5.93280 21020 ft 421 kts 219°
2026-05-07 21:07 46.61541 5.90639 21000 ft 421 kts 219°
2026-05-07 21:07 46.59243 5.88001 20501 ft 415 kts 219°
2026-05-07 21:07 46.56987 5.85413 19813 ft 412 kts 219°
2026-05-07 21:08 46.54779 5.82884 19154 ft 408 kts 219°
2026-05-07 21:08 46.52538 5.80319 18460 ft 405 kts 219°
2026-05-07 21:08 46.50356 5.77824 17809 ft 402 kts 219°
2026-05-07 21:08 46.48154 5.75308 17161 ft 398 kts 219°
2026-05-07 21:09 46.46001 5.72852 16519 ft 395 kts 219°
2026-05-07 21:09 46.43845 5.70395 15896 ft 391 kts 219°
2026-05-07 21:09 46.41726 5.67982 15233 ft 388 kts 219°
2026-05-07 21:09 46.39614 5.65580 14600 ft 385 kts 219°
2026-05-07 21:10 46.37527 5.63208 13979 ft 381 kts 218°
2026-05-07 21:10 46.35446 5.60846 13378 ft 378 kts 218°
2026-05-07 21:10 46.33391 5.58516 12750 ft 374 kts 218°
2026-05-07 21:10 46.31360 5.56215 12161 ft 371 kts 218°
2026-05-07 21:11 46.29339 5.53927 11581 ft 367 kts 218°
2026-05-07 21:11 46.27346 5.51674 10967 ft 364 kts 218°
2026-05-07 21:11 46.23500 5.47318 10194 ft 337 kts 218°
2026-05-07 21:12 46.21730 5.45300 9991 ft 322 kts 218°
2026-05-07 21:12 46.20020 5.43339 9965 ft 307 kts 218°
2026-05-07 21:12 46.18385 5.41460 9927 ft 293 kts 218°
2026-05-07 21:12 46.16843 5.39686 9874 ft 280 kts 218°
2026-05-07 21:13 46.15315 5.37913 9557 ft 279 kts 218°
2026-05-07 21:13 46.13805 5.36155 9222 ft 278 kts 218°
2026-05-07 21:13 46.12302 5.34410 8972 ft 278 kts 217°
2026-05-07 21:13 46.10790 5.32656 8726 ft 277 kts 218°
2026-05-07 21:14 46.09289 5.30922 8473 ft 277 kts 217°
2026-05-07 21:14 46.07606 5.29595 8232 ft 275 kts 193°
2026-05-07 21:14 46.05727 5.29378 8030 ft 274 kts 176°
2026-05-07 21:14 46.03824 5.29551 7786 ft 273 kts 176°
2026-05-07 21:15 46.01920 5.29688 7525 ft 271 kts 176°
2026-05-07 21:15 46.00049 5.29821 7273 ft 271 kts 176°
2026-05-07 21:15 45.98152 5.29952 7015 ft 270 kts 176°
2026-05-07 21:15 45.96268 5.30081 6766 ft 271 kts 176°
2026-05-07 21:16 45.94400 5.30207 6513 ft 270 kts 176°
2026-05-07 21:16 45.92518 5.30334 6251 ft 270 kts 176°
2026-05-07 21:16 45.90607 5.30462 5990 ft 271 kts 176°
2026-05-07 21:16 45.88731 5.30587 5734 ft 272 kts 176°
2026-05-07 21:17 45.86854 5.30713 5489 ft 271 kts 176°
2026-05-07 21:17 45.84950 5.30840 5236 ft 271 kts 176°
2026-05-07 21:17 45.83048 5.30967 5015 ft 270 kts 176°
2026-05-07 21:17 45.81182 5.31091 5009 ft 268 kts 176°
2026-05-07 21:18 45.79319 5.31216 5009 ft 270 kts 176°
2026-05-07 21:18 45.77426 5.31342 5013 ft 275 kts 176°
2026-05-07 21:18 45.75490 5.31470 5010 ft 278 kts 176°
2026-05-07 21:18 45.73547 5.31599 5019 ft 278 kts 176°
2026-05-07 21:19 45.71620 5.31727 5012 ft 277 kts 176°
2026-05-07 21:19 45.69688 5.31855 5007 ft 276 kts 176°
2026-05-07 21:19 45.67754 5.31984 5011 ft 276 kts 176°
2026-05-07 21:19 45.65835 5.32106 5019 ft 276 kts 178°
2026-05-07 21:20 45.63949 5.31598 5024 ft 278 kts 205°
2026-05-07 21:20 45.62350 5.30142 4925 ft 277 kts 215°
2026-05-07 21:20 45.60752 5.28512 4798 ft 279 kts 215°
2026-05-07 21:20 45.59191 5.26900 4784 ft 278 kts 215°
2026-05-07 21:21 45.57625 5.25264 4669 ft 274 kts 216°
2026-05-07 21:21 45.56101 5.23662 4459 ft 269 kts 216°
2026-05-07 21:21 45.54658 5.22074 4433 ft 257 kts 225°
2026-05-07 21:21 45.53754 5.19958 4420 ft 243 kts 256°
2026-05-07 21:22 45.53486 5.17630 4387 ft 233 kts 263°
2026-05-07 21:22 45.53319 5.15360 4169 ft 231 kts 274°
2026-05-07 21:22 45.53802 5.13276 4129 ft 213 kts 309°
2026-05-07 21:22 45.54915 5.11952 3909 ft 208 kts 331°
2026-05-07 21:23 45.56257 5.11362 3719 ft 196 kts 355°
2026-05-07 21:23 45.57576 5.11174 3458 ft 189 kts 355°
2026-05-07 21:23 45.58850 5.10984 3243 ft 178 kts 356°
2026-05-07 21:23 45.60088 5.10818 2997 ft 174 kts 356°
2026-05-07 21:24 45.61247 5.10669 2779 ft 164 kts 356°
2026-05-07 21:24 45.62365 5.10530 2646 ft 160 kts 356°
2026-05-07 21:24 45.63490 5.10393 2405 ft 159 kts 357°
2026-05-07 21:24 45.64533 5.10265 2166 ft 149 kts 357°
2026-05-07 21:25 45.65503 5.10147 1926 ft 136 kts 357°
2026-05-07 21:25 45.66434 5.10037 1750 ft 135 kts 357°
2026-05-07 21:25 45.67382 5.09924 1596 ft 140 kts 356°
2026-05-07 21:25 45.68360 5.09806 1407 ft 141 kts 356°
2026-05-07 21:26 45.69333 5.09692 1207 ft 140 kts 356°
2026-05-07 21:26 45.70320 5.09578 1010 ft 140 kts 355°
2026-05-07 21:26 45.71294 5.09456 844 ft 141 kts 354°
2026-05-07 21:26 45.72138 5.09352 817 ft 111 kts 355°
2026-05-07 21:27 45.72689 5.09285 804 ft 50 kts 355°
2026-05-07 21:27 45.72927 5.09256 797 ft 17 kts 352°
2026-05-07 21:27 45.72980 5.09145 796 ft 11 kts 266°
2026-05-07 21:27 45.72971 5.09025 793 ft 13 kts 264°
2026-05-07 21:28 45.72963 5.08879 791 ft 15 kts 265°
2026-05-07 21:28 45.72953 5.08714 790 ft 16 kts 264°
2026-05-07 21:28 45.72943 5.08551 788 ft 18 kts 265°
2026-05-07 21:28 45.72908 5.08377 785 ft 18 kts 219°
2026-05-07 21:29 45.72787 5.08357 787 ft 17 kts 173°
2026-05-07 21:29 45.72664 5.08373 790 ft 17 kts 175°
2026-05-07 21:29 45.72538 5.08387 793 ft 18 kts 174°
2026-05-07 21:29 45.72407 5.08404 796 ft 19 kts 175°
2026-05-07 21:30 45.72273 5.08420 799 ft 21 kts 175°
2026-05-07 21:30 45.72120 5.08438 801 ft 23 kts 175°
2026-05-07 21:30 45.71952 5.08458 803 ft 25 kts 175°
2026-05-07 21:30 45.71775 5.08480 805 ft 27 kts 175°
2026-05-07 21:31 45.71582 5.08503 807 ft 29 kts 175°
2026-05-07 21:31 45.71381 5.08528 812 ft 28 kts 175°
2026-05-07 21:31 45.71194 5.08552 815 ft 23 kts 172°
2026-05-07 21:31 45.71099 5.08649 817 ft 10 kts 167°
2026-05-07 21:32 45.71035 5.08650 818 ft 8 kts 183°
2026-05-07 21:32 45.70970 5.08645 819 ft 10 kts 184°
2026-05-07 21:32 45.70902 5.08628 821 ft 7 kts 216°
2026-05-07 21:32 45.70893 5.08581 821 ft 5 kts 271°
2026-05-07 21:33 45.70895 5.08516 821 ft 5 kts 273°
2026-05-07 21:33 45.70895 5.08514 821 ft 0 kts 273°